Regional Weather Roundup
Issued by NWS

Home | Current Version | Previous Version | Text Only | Print | Product List | Glossary On
Versions: 1 2 3 4 5 6 7 8 9 10 11 12 13 14 15 16 17 18 19 20 21 22 23 24 25 26 27 28 29 30 31 32 33 34 35 36 37 38 39 40 41 42 43 44 45 46 47 48 49 50
000
ASUS43 KMPX 231010
RWRMN
WEATHER ROUNDUP FOR MINNESOTA
NATIONAL WEATHER SERVICE TWIN CITIES/CHANHASSEN MN
500 AM CDT MON OCT 23 2017


NOTE: "FAIR" INDICATES FEW OR NO CLOUDS BELOW 12,000 FEET WITH NO
SIGNIFICANT WEATHER AND/OR OBSTRUCTIONS TO VISIBILITY. N/A MEANS
CURRENT SKY AND/OR WEATHER CONDITIONS ARE NOT AVAILABLE.

MNZ060>063-068>070-231100-
   Twin Cities Metro

CITY           SKY/WX    TMP DP  RH WIND       PRES   REMARKS
TWIN CITIES    MOCLDY    51  37  58 SE8       29.78F
ST PAUL        MOCLDY    49  40  71 SE6       29.80F
CRYSTAL        CLOUDY    52  33  48 S7        29.76F
BLAINE         CLOUDY    54  36  50 S9        29.76F
LAKEVILLE      MOCLDY    48  37  66 S5        29.80S
EDEN PRAIRIE   PTCLDY    52  35  52 S9        29.77F
SOUTH ST PAUL  MOCLDY    51  37  59 S3        29.79F
LAKE ELMO      FAIR      50  37  62 S10       29.80F
$$
MNZ001>005-007-008-013>017-022>024-027-028-231100-
   Northwest Minnesota

CITY           SKY/WX    TMP DP  RH WIND       PRES   REMARKS
BEMIDJI        CLOUDY    47  42  82 NW5       29.63S
HALLOCK        CLOUDY    48  39  71 W13       29.59R
ROSEAU         CLOUDY    48  45  87 SW9       29.56R
WARROAD        LGT RAIN  50  46  87 SW7       29.56S
THIEF RVR FALL CLOUDY    50  43  77 W17       29.62R
CROOKSTON      PTCLDY    50  45  81 W14       29.64R
FOSSTON        CLOUDY    46  43  87 SW8       29.64S
DETROIT LAKES  PTCLDY    52  41  66 W9        29.68R
MOORHEAD       PTCLDY    54  43  66 W16G22    29.69R
PARK RAPIDS    PTCLDY    50  40  68 W12       29.64S
MAHNOMEN       CLOUDY    48  42  79 W6        29.65S
$$
MNZ006-009>011-018-025>026-231100-
   North Central Minnesota

CITY           SKY/WX    TMP DP  RH WIND       PRES   REMARKS
BAUDETTE       LGT RAIN  50  46  86 SW10G21   29.58R
FLAG ISLAND    CLOUDY    52  39  62 SW9       29.54R
INTL FALLS     CLOUDY    53  36  52 S8G17     29.61S
WASKISH        LGT RAIN  52  46  82 CALM      29.61F
BIG FORK       LGT RAIN  52  39  62 S5        29.63S
LONGVILLE      CLOUDY    52  36  54 S6        29.64F
GRAND RAPIDS   LGT RAIN  51  38  60 S10       29.67F
CRANE LAKE     CLOUDY    52  34  50 S6        29.65F
ORR            CLOUDY    52  30  43 S7        29.61F
COOK           CLOUDY    54  34  47 S7        29.65F
WALKER         FAIR      51  37  58 SW10      29.63F
$$
MNZ012-019>021-037-231100-
   Northeast Minnesota

CITY           SKY/WX    TMP DP  RH WIND       PRES   REMARKS
DULUTH         CLOUDY    52  34  50 S15       29.71F
ELY            CLOUDY    52  32  46 S8        29.68F
HIBBING        CLOUDY    50  33  52 S7        29.67F
EVELETH        CLOUDY    51  23  33 S5        29.68F
DULUTH HARBOR  CLOUDY    55  37  50 SW6       29.73F
TWO HARBORS    MOCLDY    52  41  66 S5        29.71F
SILVER BAY     CLOUDY    48  41  76 CALM      29.72F
G MARAIS ARPRT CLOUDY    46  37  71 S8        29.77S
$$
MNZ029>031-032-039>041-046>048-054>057-064-231100-
   West Central Minnesota

CITY           SKY/WX    TMP DP  RH WIND       PRES   REMARKS
FERGUS FALLS   PTCLDY    52  41  66 W13       29.71R
WHEATON        CLOUDY    54  39  58 W14G23    29.76R
MORRIS         CLOUDY    54  45  71 W15       29.74R
ALEXANDRIA     PTCLDY    56  42  59 W15G23    29.73S
ELBOW LAKE     FAIR      53  42  66 W12G18    29.73R
WADENA         MOCLDY    54  41  62 W9        29.67S
GLENWOOD       CLOUDY    52  43  71 SW9       29.74S
APPLETON       MOCLDY    54  41  62 W12       29.76R
BENSON           N/A     54  39  58 W10       29.76S
ORTONVILLE     PTCLDY    54  43  66 NW12G18   29.78R
MADISON        CLOUDY    57  43  58 W12G17    29.78R
WILLMAR        FAIR      48  39  71 CALM      29.77S
$$
MNZ033>034-036-042>043-049>051-058-059-231100-
   Central Minnesota

CITY           SKY/WX    TMP DP  RH WIND       PRES   REMARKS
ST CLOUD       CLOUDY    51  38  60 S9        29.74F
SAUK CENTRE    CLOUDY    52  44  74 W9        29.72F
PAYNESVILLE    CLOUDY    51  38  61 S6        29.75S
AITKIN         CLOUDY    52  36  54 S12       29.67F
PINE RIVER     CLOUDY    52  36  54 SW7       29.69F
BRAINERD       MOCLDY    53  35  50 S10       29.68F
STAPLES        PTCLDY    54  37  54 SW7       29.67F
LONG PRAIRIE   FAIR      50  43  76 S8        29.71F
LITTLE FALLS   CLOUDY    52  30  43 SW8       29.72R
LITCHFIELD     CLOUDY    50  39  66 CALM      29.76F
BUFFALO        CLOUDY    51  35  53 S7        29.78S
MAPLE LAKE     CLOUDY    51  39  62 S6        29.76F
HUTCHINSON     CLOUDY    49  39  68 S3        29.78F
$$
MNZ037-044-045-052-053-231100-
   East Central Minnesota

CITY           SKY/WX    TMP DP  RH WIND       PRES   REMARKS
PRINCETON      CLOUDY    54  36  50 S7        29.75F
MORA           PTCLDY    50  34  53 S9        29.75F
CAMBRIDGE      LGT RAIN  55  37  50 S8        29.75F
RUSH CITY      CLOUDY    52  35  53 S8        29.75F
MOOSE LAKE     CLOUDY    52  32  46 S9        29.71S
HINCKLEY       CLOUDY    52  36  54 S9        29.74F
CLOQUET        CLOUDY    54  30  40 S6        29.71F
MCGREGOR       CLOUDY    52  36  54 S10       29.70F
$$
MNZ071>073-080-081-089-090-097-098-231100-
   Southwest Minnesota

CITY           SKY/WX    TMP DP  RH WIND       PRES   REMARKS
MONTEVIDEO     PTCLDY    54  39  58 NW8       29.77R
GRANITE FALLS  CLEAR     51  39  63 SW9       29.79R
CANBY          CLOUDY    56  41  57 NW15G21   29.80R
MARSHALL       CLEAR     53  37  54 W13       29.79S
REDWOOD FALLS  CLOUDY    48  35  60 SW8       29.77F
OLIVIA         CLOUDY    46  36  66 SW6       29.76F
PIPESTONE      PTCLDY    46  34  61 NW7       29.83R
WORTHINGTON    PTCLDY    47  33  58 SW8       29.82F
JACKSON        CLEAR     45  34  65 SW9       29.82F
TRACY          CLEAR     52  37  56 W9        29.79S
SLAYTON        CLOUDY    49  33  54 W12       29.81F
$$
MNZ065>067-074>077-082>085-091>093-231100-
   South Central Minnesota

CITY           SKY/WX    TMP DP  RH WIND       PRES   REMARKS
MANKATO        PTCLDY    46  35  65 S7        29.80F
NEW ULM          N/A     46  36  66 S3        29.78F
ST JAMES       PTCLDY    45  36  70 S6        29.80F
FAIRMONT       CLEAR     44  36  73 SW12      29.82F
GLENCOE        CLOUDY    51  37  60 S8        29.77S
FARIBAULT      MOCLDY    48  37  66 S7        29.81F
OWATONNA       PTCLDY    46  37  71 S12       29.82F
WASECA         MOCLDY    46  34  61 S8        29.83S
$$
MNZ078>079-086>088-094>096-231100-
   Southeast Minnesota

CITY           SKY/WX    TMP DP  RH WIND       PRES   REMARKS
ROCHESTER      CLOUDY    46  40  79 S13       29.85F
RED WING       CLEAR     52  36  54 S8        29.81F
STANTON        PTCLDY    49  37  64 S7        29.80F
DODGE CENTER   CLEAR     45  37  76 S8        29.84S
WINONA         MOCLDY    50  41  71 SE5       29.87F
AUSTIN         CLOUDY    46  37  71 S7        29.85F
PRESTON        PTCLDY    46  39  75 S12       29.88F
$$
ABBREVIATIONS USED IN REMARKS
   TC - TEMPERATURES IN CELSIUS
  WCI - WIND CHILL INDEX
   HX - HEAT INDEX
  VSB - VISIBILITY
$$




USA.gov is the U.S. government's official web portal to all federal, state and local government web resources and services.